This is the latest recevied weather packets stored in our database for station/object GW1596. If no packets are shown the sender has not sent any weather packets the latest 10 day(s).
| Time | Temp. | Humidity | Pressure | Rain* | Wind** | Luminosity | Snow |
|---|---|---|---|---|---|---|---|
| 1777928990 | 21.67° C | 46% | 1011.8 hPa | 0 mm | - | - | - |
| 1777927172 | 23.33° C | 44% | 1011.1 hPa | 0 mm | - | - | - |
| 1777925741 | 22.78° C | 44% | 1011.5 hPa | 0 mm | - | - | - |
| 1777923577 | 21.11° C | 50% | 1011.8 hPa | 0 mm | - | - | - |
| 1777922842 | 21.67° C | 47% | 1012.1 hPa | 0 mm | - | - | - |
| 1777921789 | 21.67° C | 52% | 1012.1 hPa | 0 mm | - | - | - |
| 1777921054 | 21.67° C | 51% | 1012.1 hPa | 0 mm | - | - | - |
| 1777920335 | 21.67° C | 49% | 1012.1 hPa | 0 mm | - | - | - |
| 1777917800 | 21.67° C | 49% | 1012.5 hPa | 0 mm | - | - | - |
| 1777917468 | 22.22° C | 52% | 1012.8 hPa | 0 mm | - | - | - |
| 1777915633 | 21.67° C | 48% | 1013.2 hPa | 0 mm | - | - | - |
| 1777913498 | 20° C | 49% | 1013.8 hPa | 0 mm | - | - | - |
| 1777911690 | 19.44° C | 52% | 1013.8 hPa | 0 mm | - | - | - |
| 1777911312 | 18.89° C | 55% | 1014.2 hPa | 0 mm | - | - | - |
| 1777910082 | 17.78° C | 56% | 1014.5 hPa | 0 mm | - | - | - |
| 1777908269 | 16.67° C | 56% | 1014.9 hPa | 0 mm | - | - | - |
| 1777907533 | 17.22° C | 57% | 1015.2 hPa | 0 mm | - | - | - |
| 1777906483 | 16.67° C | 55% | 1015.2 hPa | 0 mm | - | - | - |
| 1777903613 | 16.67° C | 51% | 1014.9 hPa | 0 mm | - | - | - |
| 1777902870 | 16.11° C | 55% | 1015.2 hPa | 0 mm | - | - | - |
| 1777902163 | 15.56° C | 51% | 1014.9 hPa | 0 mm | - | - | - |
| 1777898905 | 13.89° C | 58% | 1014.9 hPa | 0 mm | - | - | - |
| 1777896405 | 10.56° C | 73% | 1014.9 hPa | 0 mm | - | - | - |
| 1777895323 | 8.89° C | 85% | 1015.2 hPa | 0 mm | - | - | - |
| 1777892430 | 6.11° C | 96% | 1015.5 hPa | 0 mm | - | - | - |
* Rain since midnight (hover to see other rain measurements)
** Current wind speed in m/s (hover to see current wind gust speed)